RYR827 GCTS-GMMX

Flight info

Callsign RYR827
Flight time 1h 23m
Altitude 38000
Route KORAL UG5 SONSO UG664 ADM UG850 LISRA
Aircraft B738/M-SDE3FGILRWY/SB1

Departure

Time 2026-04-27 16:47
Airport Tenerife Sur Airport (GCTS)

Arrival

Time 2026-04-27 18:10
Airport Marrakesh Menara Airport (GMMX)
Time Latitude Longitude Altitude Speed Heading
2026-04-27 16:10 28.04577 -16.58067 225 ft 0 kts 338°
2026-04-27 16:36 28.04554 -16.58057 225 ft 4 kts 338°
2026-04-27 16:36 28.04534 -16.58047 224 ft 4 kts 327°
2026-04-27 16:37 28.04517 -16.58027 224 ft 4 kts 285°
2026-04-27 16:37 28.04516 -16.57998 224 ft 4 kts 255°
2026-04-27 16:37 28.04521 -16.57979 225 ft 1 kts 248°
2026-04-27 16:41 28.04514 -16.57997 223 ft 6 kts 247°
2026-04-27 16:41 28.04489 -16.58064 225 ft 10 kts 248°
2026-04-27 16:41 28.04462 -16.58140 223 ft 10 kts 248°
2026-04-27 16:42 28.04425 -16.58205 223 ft 10 kts 205°
2026-04-27 16:42 28.04353 -16.58189 222 ft 12 kts 159°
2026-04-27 16:42 28.04290 -16.58234 223 ft 12 kts 241°
2026-04-27 16:42 28.04257 -16.58320 222 ft 12 kts 248°
2026-04-27 16:43 28.04224 -16.58415 222 ft 14 kts 248°
2026-04-27 16:43 28.04187 -16.58533 223 ft 17 kts 253°
2026-04-27 16:43 28.04146 -16.58661 226 ft 18 kts 248°
2026-04-27 16:43 28.04096 -16.58801 214 ft 18 kts 248°
2026-04-27 16:44 28.04051 -16.58928 208 ft 17 kts 249°
2026-04-27 16:44 28.04024 -16.58979 214 ft 0 kts 212°
2026-04-27 16:45 28.04017 -16.58984 214 ft 3 kts 208°
2026-04-27 16:45 28.03981 -16.58988 208 ft 8 kts 162°
2026-04-27 16:45 28.03919 -16.58909 202 ft 19 kts 123°
2026-04-27 16:46 28.03917 -16.58775 207 ft 16 kts 71°
2026-04-27 16:46 28.03972 -16.58614 198 ft 43 kts 69°
2026-04-27 16:46 28.04174 -16.58037 190 ft 113 kts 68°
2026-04-27 16:46 28.04537 -16.57012 248 ft 161 kts 68°
2026-04-27 16:47 28.04958 -16.55820 938 ft 162 kts 70°
2026-04-27 16:47 28.05372 -16.54602 1688 ft 169 kts 70°
2026-04-27 16:47 28.05799 -16.53289 2151 ft 188 kts 69°
2026-04-27 16:47 28.06293 -16.51856 2499 ft 208 kts 68°
2026-04-27 16:48 28.06844 -16.50313 2957 ft 216 kts 68°
2026-04-27 16:48 28.07440 -16.48653 3193 ft 238 kts 68°
2026-04-27 16:48 28.08085 -16.46859 3626 ft 257 kts 67°
2026-04-27 16:49 28.08881 -16.42812 5146 ft 268 kts 84°
2026-04-27 16:49 28.09026 -16.40690 5879 ft 272 kts 84°
2026-04-27 16:49 28.09165 -16.38546 6648 ft 275 kts 84°
2026-04-27 16:49 28.09309 -16.36375 7380 ft 278 kts 84°
2026-04-27 16:50 28.09458 -16.34201 8105 ft 282 kts 83°
2026-04-27 16:50 28.09613 -16.31979 8910 ft 285 kts 83°
2026-04-27 16:50 28.09773 -16.29718 9626 ft 291 kts 82°
2026-04-27 16:50 28.09935 -16.27418 10352 ft 297 kts 81°
2026-04-27 16:51 28.10112 -16.24999 10590 ft 321 kts 82°
2026-04-27 16:51 28.10301 -16.22414 10987 ft 336 kts 83°
2026-04-27 16:51 28.10491 -16.19748 11614 ft 342 kts 83°
2026-04-27 16:51 28.10678 -16.17083 12355 ft 346 kts 83°
2026-04-27 16:52 28.10872 -16.14356 13058 ft 352 kts 82°
2026-04-27 16:52 28.11073 -16.11572 13759 ft 358 kts 84°
2026-04-27 16:52 28.11275 -16.08753 14492 ft 357 kts 84°
2026-04-27 16:52 28.11473 -16.05953 14877 ft 356 kts 83°
2026-04-27 16:53 28.11672 -16.03133 15028 ft 359 kts 84°
2026-04-27 16:53 28.11751 -16.00312 15060 ft 360 kts 90°
2026-04-27 16:53 28.11588 -15.97445 15416 ft 370 kts 93°
2026-04-27 16:53 28.11350 -15.94526 16190 ft 372 kts 94°
2026-04-27 16:54 28.11110 -15.91646 17027 ft 373 kts 94°
2026-04-27 16:54 28.10875 -15.88701 17733 ft 378 kts 94°
2026-04-27 16:54 28.10652 -15.85704 18394 ft 384 kts 93°
2026-04-27 16:54 28.10437 -15.82680 19061 ft 386 kts 93°
2026-04-27 16:55 28.10226 -15.79635 19720 ft 389 kts 93°
2026-04-27 16:55 28.10019 -15.76571 20350 ft 393 kts 92°
2026-04-27 16:55 28.09810 -15.73466 20958 ft 397 kts 92°
2026-04-27 16:55 28.09598 -15.70339 21559 ft 401 kts 92°
2026-04-27 16:56 28.09383 -15.67176 22162 ft 405 kts 92°
2026-04-27 16:56 28.09169 -15.64025 22761 ft 409 kts 92°
2026-04-27 16:56 28.08948 -15.60805 23403 ft 411 kts 92°
2026-04-27 16:56 28.08725 -15.57570 23940 ft 414 kts 92°
2026-04-27 16:57 28.08501 -15.54301 24408 ft 418 kts 92°
2026-04-27 16:57 28.08273 -15.51000 24872 ft 423 kts 92°
2026-04-27 16:57 28.08041 -15.47661 25309 ft 427 kts 92°
2026-04-27 16:57 28.07986 -15.44303 25730 ft 427 kts 79°
2026-04-27 16:58 28.08785 -15.41137 26155 ft 423 kts 61°
2026-04-27 16:58 28.10317 -15.38260 26634 ft 421 kts 52°
2026-04-27 16:58 28.11951 -15.35554 27057 ft 424 kts 51°
2026-04-27 16:58 28.13646 -15.32799 27451 ft 428 kts 51°
2026-04-27 16:59 28.15355 -15.30022 27865 ft 431 kts 51°
2026-04-27 16:59 28.17067 -15.27217 28281 ft 434 kts 51°
2026-04-27 16:59 28.18784 -15.24383 28698 ft 437 kts 51°
2026-04-27 16:59 28.20504 -15.21525 29114 ft 440 kts 52°
2026-04-27 17:00 28.22790 -15.17706 29625 ft 444 kts 51°
2026-04-27 17:00 28.25682 -15.12858 30214 ft 449 kts 51°
2026-04-27 17:00 28.27434 -15.09913 30508 ft 452 kts 51°
2026-04-27 17:01 28.29195 -15.06952 30781 ft 455 kts 51°
2026-04-27 17:01 28.30976 -15.03957 31064 ft 458 kts 51°
2026-04-27 17:01 28.32760 -15.00956 31344 ft 461 kts 51°
2026-04-27 17:01 28.34557 -14.97929 31619 ft 464 kts 51°
2026-04-27 17:02 28.36362 -14.94887 31940 ft 465 kts 50°
2026-04-27 17:02 28.38142 -14.91883 32362 ft 464 kts 51°
2026-04-27 17:02 28.39941 -14.88844 32784 ft 463 kts 51°
2026-04-27 17:02 28.41739 -14.85806 33111 ft 464 kts 50°
2026-04-27 17:03 28.43539 -14.82766 33475 ft 464 kts 51°
2026-04-27 17:03 28.45333 -14.79731 33959 ft 461 kts 50°
2026-04-27 17:03 28.47120 -14.76705 34275 ft 461 kts 50°
2026-04-27 17:03 28.48913 -14.73668 34467 ft 464 kts 50°
2026-04-27 17:04 28.50717 -14.70614 34685 ft 466 kts 50°
2026-04-27 17:04 28.52519 -14.67557 34969 ft 466 kts 50°
2026-04-27 17:04 28.54300 -14.64535 35257 ft 466 kts 50°
2026-04-27 17:04 28.56105 -14.61467 35500 ft 467 kts 50°
2026-04-27 17:05 28.57917 -14.58388 35720 ft 469 kts 50°
2026-04-27 17:05 28.59731 -14.55303 36012 ft 469 kts 51°
2026-04-27 17:05 28.61543 -14.52218 36306 ft 469 kts 51°
2026-04-27 17:05 28.62740 -14.50178 36453 ft 469 kts 51°
2026-04-27 17:06 28.65175 -14.46030 36736 ft 472 kts 51°
2026-04-27 17:06 28.66994 -14.42929 36978 ft 472 kts 51°
2026-04-27 17:06 28.68818 -14.39816 37215 ft 473 kts 51°
2026-04-27 17:06 28.70620 -14.36738 37429 ft 474 kts 51°
2026-04-27 17:07 28.72448 -14.33612 37654 ft 474 kts 51°
2026-04-27 17:07 28.74277 -14.30483 37880 ft 475 kts 51°
2026-04-27 17:07 28.76109 -14.27346 38037 ft 477 kts 51°
2026-04-27 17:08 28.79803 -14.21015 38053 ft 480 kts 51°
2026-04-27 17:08 28.83452 -14.14739 38019 ft 470 kts 51°
2026-04-27 17:09 28.87041 -14.08569 38026 ft 469 kts 51°
2026-04-27 17:09 28.90650 -14.02360 38022 ft 469 kts 51°
2026-04-27 17:10 28.94253 -13.96150 38023 ft 470 kts 51°
2026-04-27 17:10 28.97860 -13.89923 38012 ft 471 kts 51°
2026-04-27 17:11 29.01449 -13.83718 38021 ft 472 kts 52°
2026-04-27 17:11 29.06875 -13.74316 38001 ft 473 kts 52°
2026-04-27 17:12 29.12287 -13.64917 38000 ft 474 kts 52°
2026-04-27 17:13 29.15903 -13.58625 38005 ft 473 kts 52°
2026-04-27 17:13 29.19513 -13.52330 38002 ft 473 kts 52°
2026-04-27 17:14 29.23113 -13.46047 38020 ft 472 kts 53°
2026-04-27 17:14 29.26710 -13.39762 38014 ft 471 kts 53°
2026-04-27 17:15 29.30268 -13.33534 37999 ft 470 kts 53°
2026-04-27 17:15 29.33836 -13.27279 38011 ft 468 kts 53°
2026-04-27 17:16 29.37395 -13.21029 38006 ft 468 kts 53°
2026-04-27 17:16 29.40945 -13.14789 38002 ft 467 kts 53°
2026-04-27 17:17 29.43889 -13.09604 38009 ft 466 kts 53°
2026-04-27 17:17 29.48002 -13.02352 38021 ft 466 kts 54°
2026-04-27 17:18 29.53302 -12.92984 37998 ft 466 kts 54°
2026-04-27 17:18 29.56821 -12.86755 38001 ft 465 kts 54°
2026-04-27 17:19 29.59746 -12.81567 37996 ft 465 kts 54°
2026-04-27 17:19 29.63829 -12.74317 37999 ft 465 kts 54°
2026-04-27 17:20 29.67335 -12.68079 37980 ft 464 kts 54°
2026-04-27 17:20 29.70242 -12.62902 37994 ft 464 kts 54°
2026-04-27 17:21 29.73743 -12.56670 37993 ft 463 kts 54°
2026-04-27 17:21 29.77944 -12.49556 37977 ft 462 kts 53°
2026-04-27 17:22 29.81000 -12.44452 38008 ft 462 kts 53°
2026-04-27 17:22 29.84605 -12.38387 37993 ft 462 kts 54°
2026-04-27 17:23 29.88216 -12.32275 37973 ft 462 kts 54°
2026-04-27 17:23 29.91822 -12.26153 37992 ft 461 kts 54°
2026-04-27 17:24 29.95423 -12.20035 37978 ft 461 kts 54°
2026-04-27 17:24 29.99012 -12.13917 37987 ft 461 kts 56°
2026-04-27 17:25 30.01588 -12.07164 37981 ft 463 kts 75°
2026-04-27 17:25 30.02628 -11.99831 37980 ft 463 kts 82°
2026-04-27 17:26 30.03461 -11.92511 37979 ft 463 kts 82°
2026-04-27 17:26 30.04328 -11.85152 37978 ft 463 kts 81°
2026-04-27 17:27 30.05223 -11.77806 37962 ft 462 kts 81°
2026-04-27 17:27 30.06127 -11.70457 37970 ft 462 kts 81°
2026-04-27 17:28 30.07022 -11.63157 37964 ft 462 kts 81°
2026-04-27 17:29 30.08362 -11.52128 37953 ft 463 kts 81°
2026-04-27 17:29 30.09250 -11.44776 37966 ft 463 kts 81°
2026-04-27 17:30 30.10136 -11.37418 37966 ft 462 kts 81°
2026-04-27 17:30 30.11449 -11.26436 37974 ft 462 kts 82°
2026-04-27 17:31 30.12323 -11.19077 37953 ft 463 kts 82°
2026-04-27 17:31 30.13193 -11.11708 37963 ft 463 kts 82°
2026-04-27 17:32 30.14488 -11.00672 37952 ft 462 kts 82°
2026-04-27 17:33 30.15348 -10.93316 37965 ft 462 kts 82°
2026-04-27 17:33 30.16196 -10.86019 37959 ft 461 kts 82°
2026-04-27 17:34 30.17046 -10.78671 37945 ft 461 kts 82°
2026-04-27 17:34 30.17889 -10.71339 37950 ft 460 kts 82°
2026-04-27 17:35 30.18727 -10.64011 37936 ft 460 kts 82°
2026-04-27 17:35 30.19561 -10.56692 37951 ft 459 kts 82°
2026-04-27 17:36 30.20387 -10.49415 37941 ft 459 kts 82°
2026-04-27 17:36 30.21211 -10.42098 37943 ft 459 kts 82°
2026-04-27 17:37 30.22032 -10.34778 37938 ft 459 kts 82°
2026-04-27 17:37 30.22850 -10.27450 37926 ft 459 kts 82°
2026-04-27 17:38 30.23653 -10.20127 37937 ft 459 kts 83°
2026-04-27 17:38 30.24420 -10.12837 37931 ft 460 kts 83°
2026-04-27 17:39 30.25188 -10.05506 37927 ft 460 kts 83°
2026-04-27 17:39 30.25572 -10.01834 37814 ft 462 kts 83°
2026-04-27 17:39 30.25960 -9.98130 37367 ft 462 kts 83°
2026-04-27 17:39 30.26342 -9.94469 36975 ft 456 kts 83°
2026-04-27 17:40 30.26719 -9.90842 36585 ft 452 kts 83°
2026-04-27 17:40 30.27091 -9.87260 36211 ft 447 kts 83°
2026-04-27 17:40 30.27461 -9.83701 35825 ft 443 kts 83°
2026-04-27 17:40 30.27828 -9.80223 35444 ft 440 kts 83°
2026-04-27 17:41 30.28198 -9.76729 35054 ft 436 kts 82°
2026-04-27 17:41 30.28566 -9.73256 34670 ft 433 kts 82°
2026-04-27 17:41 30.28929 -9.69815 34290 ft 430 kts 82°
2026-04-27 17:41 30.29289 -9.66389 33907 ft 427 kts 82°
2026-04-27 17:42 30.29646 -9.62987 33473 ft 424 kts 82°
2026-04-27 17:42 30.29999 -9.59616 33072 ft 421 kts 82°
2026-04-27 17:42 30.30346 -9.56268 32688 ft 417 kts 82°
2026-04-27 17:42 30.30689 -9.52950 32318 ft 413 kts 82°
2026-04-27 17:43 30.31025 -9.49705 31968 ft 409 kts 82°
2026-04-27 17:43 30.31361 -9.46458 31603 ft 405 kts 82°
2026-04-27 17:43 30.31693 -9.43232 31254 ft 402 kts 82°
2026-04-27 17:43 30.32279 -9.40096 30887 ft 397 kts 68°
2026-04-27 17:44 30.33576 -9.37313 30657 ft 389 kts 52°
2026-04-27 17:44 30.35384 -9.35032 30355 ft 384 kts 40°
2026-04-27 17:44 30.37424 -9.33056 30044 ft 380 kts 39°
2026-04-27 17:44 30.39465 -9.31124 29646 ft 378 kts 39°
2026-04-27 17:45 30.41492 -9.29203 29261 ft 375 kts 39°
2026-04-27 17:45 30.43487 -9.27296 28891 ft 371 kts 39°
2026-04-27 17:45 30.45439 -9.25415 28526 ft 368 kts 39°
2026-04-27 17:45 30.47393 -9.23521 28157 ft 365 kts 40°
2026-04-27 17:46 30.49331 -9.21636 27799 ft 362 kts 40°
2026-04-27 17:46 30.51252 -9.19762 27449 ft 359 kts 40°
2026-04-27 17:46 30.53156 -9.17904 27098 ft 357 kts 40°
2026-04-27 17:46 30.55049 -9.16056 26754 ft 354 kts 40°
2026-04-27 17:47 30.56928 -9.14219 26411 ft 352 kts 40°
2026-04-27 17:47 30.58168 -9.13007 26189 ft 351 kts 40°
2026-04-27 17:47 30.60631 -9.10599 25747 ft 348 kts 40°
2026-04-27 17:47 30.62478 -9.08792 25423 ft 346 kts 41°
2026-04-27 17:48 30.64316 -9.06993 25072 ft 345 kts 42°
2026-04-27 17:48 30.66150 -9.05204 24748 ft 344 kts 42°
2026-04-27 17:48 30.67977 -9.03425 24422 ft 342 kts 44°
2026-04-27 17:48 30.69799 -9.01652 24100 ft 341 kts 43°
2026-04-27 17:49 30.71613 -8.99883 23773 ft 340 kts 42°
2026-04-27 17:49 30.73421 -8.98120 23435 ft 339 kts 42°
2026-04-27 17:49 30.75203 -8.96383 23048 ft 338 kts 42°
2026-04-27 17:49 30.77002 -8.94628 22716 ft 337 kts 41°
2026-04-27 17:50 30.78793 -8.92879 22376 ft 335 kts 43°
2026-04-27 17:50 30.82337 -8.89414 21734 ft 331 kts 42°
2026-04-27 17:50 30.84095 -8.87692 21399 ft 329 kts 42°
2026-04-27 17:51 30.85841 -8.85985 21101 ft 327 kts 41°
2026-04-27 17:51 30.87579 -8.84282 20787 ft 326 kts 42°
2026-04-27 17:51 30.89321 -8.82576 20487 ft 328 kts 41°
2026-04-27 17:51 30.91059 -8.80856 20170 ft 329 kts 41°
2026-04-27 17:52 30.92806 -8.79109 19877 ft 333 kts 43°
2026-04-27 17:52 30.94552 -8.77354 19567 ft 338 kts 43°
2026-04-27 17:52 30.96336 -8.75562 19218 ft 340 kts 43°
2026-04-27 17:52 30.98127 -8.73765 18882 ft 339 kts 43°
2026-04-27 17:53 30.99907 -8.71976 18559 ft 337 kts 43°
2026-04-27 17:53 31.01674 -8.70198 18241 ft 335 kts 43°
2026-04-27 17:53 31.03441 -8.68423 17860 ft 335 kts 43°
2026-04-27 17:53 31.05204 -8.66651 17530 ft 334 kts 43°
2026-04-27 17:54 31.06959 -8.64883 17207 ft 333 kts 43°
2026-04-27 17:54 31.08688 -8.63143 16882 ft 332 kts 44°
2026-04-27 17:54 31.10432 -8.61387 16559 ft 331 kts 44°
2026-04-27 17:54 31.12171 -8.59635 16249 ft 329 kts 44°
2026-04-27 17:55 31.13897 -8.57893 15929 ft 326 kts 43°
2026-04-27 17:55 31.15608 -8.56167 15635 ft 324 kts 43°
2026-04-27 17:55 31.17314 -8.54459 15319 ft 322 kts 44°
2026-04-27 17:55 31.19002 -8.52750 15025 ft 322 kts 44°
2026-04-27 17:56 31.20692 -8.51036 14712 ft 321 kts 44°
2026-04-27 17:56 31.22354 -8.49350 14414 ft 319 kts 46°
2026-04-27 17:56 31.23660 -8.47325 14195 ft 307 kts 69°
2026-04-27 17:56 31.24447 -8.45050 14004 ft 300 kts 71°
2026-04-27 17:57 31.25170 -8.42775 13738 ft 298 kts 72°
2026-04-27 17:57 31.25876 -8.40501 13419 ft 298 kts 72°
2026-04-27 17:57 31.26581 -8.38227 13089 ft 298 kts 72°
2026-04-27 17:57 31.27291 -8.35953 12765 ft 298 kts 72°
2026-04-27 17:58 31.28005 -8.33681 12444 ft 298 kts 72°
2026-04-27 17:58 31.28711 -8.31440 12127 ft 298 kts 72°
2026-04-27 17:58 31.29430 -8.29165 11798 ft 298 kts 72°
2026-04-27 17:58 31.30150 -8.26890 11471 ft 298 kts 72°
2026-04-27 17:59 31.30870 -8.24619 11144 ft 298 kts 72°
2026-04-27 17:59 31.31587 -8.22352 10817 ft 297 kts 72°
2026-04-27 17:59 31.32303 -8.20090 10479 ft 297 kts 71°
2026-04-27 17:59 31.33017 -8.17829 10174 ft 296 kts 71°
2026-04-27 18:00 31.33725 -8.15593 9996 ft 290 kts 72°
2026-04-27 18:00 31.34419 -8.13394 9718 ft 287 kts 72°
2026-04-27 18:00 31.35110 -8.11209 9416 ft 286 kts 71°
2026-04-27 18:00 31.35786 -8.09067 9122 ft 284 kts 72°
2026-04-27 18:01 31.36467 -8.06907 8836 ft 282 kts 71°
2026-04-27 18:01 31.37144 -8.04755 8550 ft 281 kts 71°
2026-04-27 18:01 31.37820 -8.02611 8263 ft 280 kts 71°
2026-04-27 18:01 31.38490 -8.00479 7977 ft 279 kts 71°
2026-04-27 18:02 31.39157 -7.98357 7701 ft 277 kts 71°
2026-04-27 18:02 31.39827 -7.96251 7432 ft 275 kts 69°
2026-04-27 18:02 31.40851 -7.94376 7155 ft 275 kts 48°
2026-04-27 18:02 31.42134 -7.92780 6969 ft 270 kts 47°
2026-04-27 18:03 31.43412 -7.91187 6740 ft 268 kts 47°
2026-04-27 18:03 31.44678 -7.89594 6491 ft 267 kts 47°
2026-04-27 18:03 31.45910 -7.87983 6216 ft 264 kts 49°
2026-04-27 18:03 31.47144 -7.86395 5938 ft 264 kts 46°
2026-04-27 18:04 31.48386 -7.84839 5750 ft 255 kts 47°
2026-04-27 18:04 31.49541 -7.83354 5636 ft 239 kts 47°
2026-04-27 18:04 31.50814 -7.82267 5470 ft 219 kts 15°
2026-04-27 18:04 31.52266 -7.82016 5280 ft 205 kts
2026-04-27 18:05 31.53649 -7.81820 5056 ft 196 kts
2026-04-27 18:05 31.54969 -7.81656 4872 ft 191 kts
2026-04-27 18:05 31.56272 -7.81490 4700 ft 185 kts
2026-04-27 18:05 31.57533 -7.81446 4497 ft 178 kts 343°
2026-04-27 18:06 31.58441 -7.82310 4348 ft 171 kts 293°
2026-04-27 18:06 31.58744 -7.83663 4207 ft 172 kts 282°
2026-04-27 18:06 31.58984 -7.85041 4039 ft 173 kts 279°
2026-04-27 18:06 31.59155 -7.86438 3867 ft 172 kts 277°
2026-04-27 18:07 31.59297 -7.87827 3699 ft 170 kts 276°
2026-04-27 18:07 31.59429 -7.89181 3540 ft 165 kts 276°
2026-04-27 18:07 31.59545 -7.90492 3423 ft 158 kts 274°
2026-04-27 18:07 31.59647 -7.91701 3303 ft 147 kts 274°
2026-04-27 18:08 31.59752 -7.92909 3154 ft 152 kts 275°
2026-04-27 18:08 31.59860 -7.94146 2912 ft 150 kts 275°
2026-04-27 18:08 31.59962 -7.95332 2749 ft 145 kts 275°
2026-04-27 18:08 31.60066 -7.96510 2546 ft 145 kts 274°
2026-04-27 18:09 31.60140 -7.97687 2301 ft 144 kts 271°
2026-04-27 18:09 31.60195 -7.98824 2139 ft 137 kts 276°
2026-04-27 18:09 31.60327 -7.99937 2024 ft 141 kts 277°
2026-04-27 18:09 31.60478 -8.01091 1806 ft 145 kts 272°
2026-04-27 18:10 31.60563 -8.02226 1553 ft 134 kts 277°
2026-04-27 18:10 31.60642 -8.03121 1545 ft 80 kts 276°
2026-04-27 18:10 31.60678 -8.03527 1540 ft 27 kts 276°
2026-04-27 18:10 31.60698 -8.03741 1540 ft 26 kts 276°
2026-04-27 18:11 31.60718 -8.03968 1536 ft 28 kts 275°
2026-04-27 18:11 31.60736 -8.04189 1537 ft 26 kts 276°
2026-04-27 18:11 31.60738 -8.04353 1529 ft 17 kts 243°
2026-04-27 18:11 31.60651 -8.04394 1543 ft 7 kts 187°
2026-04-27 18:12 31.60614 -8.04398 1546 ft 2 kts 185°
2026-04-27 18:12 31.60600 -8.04397 1546 ft 2 kts 165°
2026-04-27 18:12 31.60591 -8.04386 1546 ft 2 kts 127°
2026-04-27 18:12 31.60585 -8.04370 1545 ft 3 kts 107°
2026-04-27 18:13 31.60578 -8.04318 1547 ft 11 kts 97°
2026-04-27 18:13 31.60568 -8.04206 1547 ft 16 kts 95°
2026-04-27 18:13 31.60557 -8.04070 1542 ft 16 kts 95°
2026-04-27 18:13 31.60546 -8.03945 1547 ft 15 kts 95°
2026-04-27 18:14 31.60537 -8.03833 1547 ft 13 kts 95°
2026-04-27 18:14 31.60529 -8.03726 1547 ft 13 kts 95°
2026-04-27 18:14 31.60521 -8.03623 1547 ft 13 kts 95°
2026-04-27 18:14 31.60512 -8.03522 1542 ft 12 kts 97°
2026-04-27 18:15 31.60501 -8.03426 1545 ft 12 kts 97°
2026-04-27 18:15 31.60491 -8.03330 1543 ft 12 kts 97°
2026-04-27 18:15 31.60483 -8.03238 1543 ft 11 kts 95°
2026-04-27 18:15 31.60476 -8.03148 1542 ft 11 kts 96°
2026-04-27 18:16 31.60468 -8.03061 1545 ft 11 kts 96°
2026-04-27 18:16 31.60459 -8.02977 1543 ft 10 kts 96°
2026-04-27 18:16 31.60452 -8.02896 1548 ft 10 kts 96°
2026-04-27 18:16 31.60445 -8.02818 1548 ft 10 kts 95°
2026-04-27 18:17 31.60439 -8.02741 1541 ft 10 kts 95°
2026-04-27 18:17 31.60432 -8.02651 1548 ft 12 kts 96°
2026-04-27 18:17 31.60397 -8.02582 1545 ft 10 kts 169°
2026-04-27 18:17 31.60330 -8.02589 1548 ft 8 kts 186°
2026-04-27 18:18 31.60312 -8.02591 1548 ft 0 kts 187°